Location: Home
(42.5358°N, 72.7383°W)
Time: 15:04:08
(UTC-05:00)

Vanguard 3 - Pass Details

Date: 06 December 2021
Orbit: 508 x 3260 km, 33.3° (Epoch: 20 January)

Event Time Altitude Azimuth Distance (km) Brightness Sun altitude
Rises 00:48:01 0° 207° (SSW) 6,254 - -65.7°
Reaches altitude 10° 00:52:29 10° 198° (SSW) 5,561 - -65.2°
Maximum altitude 01:07:20 33° 142° (SE) 4,510 - -63.2°
Exits shadow 01:11:38 31° 123° (ESE) 4,680 10.8 -62.6°
Drops below altitude 10° 01:23:10 10° 89° (E) 5,984 11.8 -61.0°
Sets 01:28:08 0° 81° (E) 6,778 12.2 -60.2°
